Flag for Greenland

Past Weather in Maniitsoq, Greenland — Yesterday and Last 2 Weeks

Now
47 °F

Cool.


Feels Like: 41 °F
Forecast: 48 / 42 °F
Wind: 13 mph from Northwest

Location: Sioralik

Current Time: Jul 12, 2020 at 6:02:55 pm

Latest Report: Jul 12, 2020 at 4:00 pm


Visibility: N/A

Pressure: 29.68 "Hg

Humidity: 83%

Dew Point: 42 °F

Location of ManiitsoqLocation

Past Weather in Maniitsoq — Graph

°F

Maniitsoq Temperature Yesterday

Maximum temperature yesterday: 44 °F (at 4:00 pm)
Minimum temperature yesterday: 40 °F (at 12:00 am)
Average temperature yesterday: 43 °F

High & Low Weather Summary for the Past Weeks

 TemperatureHumidityPressure
High53 °F (Jul 1, 3:00 am)100% (Jun 27, 11:00 pm)30.26 "Hg (Jun 27, 11:00 pm)
Low34 °F (Jun 28, 5:00 am)49% (Jul 1, 3:00 am)29.57 "Hg (Jul 9, 4:00 pm)
Average40 °F94%29.90 "Hg
* Reported Jun 27 4:00 pm — Jul 12 4:00 pm, Maniitsoq. Weather by CustomWeather, © 2020

Note: Actual official high and low records may vary slightly from our data, if they occured in-between our weather recording intervals... More about our weather records

Maniitsoq Weather History for the Previous 24 Hours

Scroll right to see more
 ConditionsComfort  
Time TempWeatherWind HumidityBarometerVisibility
4:00 pm
Sun, Jul 12
47 °FCool.13 mph83%29.68 "HgN/A
3:00 pm46 °FCool.14 mph86%29.70 "HgN/A
2:00 pm45 °FCool.14 mph87%29.71 "HgN/A
1:00 pm45 °FQuite cool.14 mph87%29.72 "HgN/A
12:00 pm44 °FQuite cool.14 mph87%29.74 "HgN/A
11:00 am44 °FQuite cool.9 mph88%29.75 "HgN/A
10:00 am45 °FCool.12 mph85%29.75 "HgN/A
9:00 am44 °FQuite cool.13 mph89%29.77 "HgN/A
8:00 am43 °FQuite cool.12 mph92%29.78 "HgN/A
7:00 am43 °FQuite cool.14 mph92%29.79 "HgN/A
6:00 am42 °FQuite cool.10 mph93%29.80 "HgN/A
5:00 am42 °FQuite cool.13 mph94%29.81 "HgN/A
4:00 am42 °FQuite cool.13 mph92%29.81 "HgN/A
3:00 am41 °FQuite cool.14 mph94%29.81 "HgN/A
2:00 am42 °FQuite cool.13 mph93%29.82 "HgN/A
1:00 am42 °FQuite cool.14 mph91%29.83 "HgN/A
12:00 am42 °FQuite cool.16 mph91%29.84 "HgN/A
11:00 pm
Sat, Jul 11
42 °FQuite cool.18 mph93%29.84 "HgN/A
10:00 pm43 °FQuite cool.15 mph85%29.85 "HgN/A
9:00 pm43 °FQuite cool.18 mph86%29.86 "HgN/A
8:00 pm43 °FQuite cool.21 mph86%29.87 "HgN/A
7:00 pm44 °FQuite cool.17 mph83%29.87 "HgN/A
6:00 pm44 °FQuite cool.21 mph83%29.88 "HgN/A
Weather by CustomWeather, © 2020

See weather overview